Theta_e
318 317 317 315 310 307 307 307 308 310 311 312 314 315 318 318 317 317 319 322 323 323 322 322 321 322 322 323 324 325 326 325 325 326 326 325 325 325 325 324 324 323 323 322 321 321 321 320 320 321 321 321 321 321 320 319 318 317 316 316 316 317 318
320 319 317 312 308 307 307 307 310 312 313 314 314 315 316 317 317 316 316 318 321 322 321 321 321 320 320 320 321 322 323 323 324 324 325 324 324 324 324 324 324 324 323 322 322 321 321 320 320 321 321 320 319 317 315 315 315 315 314 313 312 313 315
320 318 314 309 307 307 307 308 311 314 315 315 315 315 317 318 317 317 317 316 318 320 321 320 320 318 317 317 319 320 319 321 322 322 322 322 322 322 322 323 323 322 322 322 321 321 321 320 320 320 320 319 317 314 312 312 313 313 313 312 312 312 313
318 314 310 308 307 307 307 307 310 314 315 314 313 313 316 317 317 316 316 315 315 317 318 318 318 316 313 312 316 317 315 318 320 321 321 320 319 320 320 321 321 321 321 321 320 321 320 319 319 318 316 315 312 310 311 312 313 313 314 314 314 314 314
315 310 308 308 307 307 306 306 308 310 311 310 310 311 313 314 314 312 310 310 311 314 316 316 313 310 309 310 313 312 311 315 318 318 316 314 316 317 317 319 319 318 316 315 315 316 314 312 311 310 308 308 307 307 311 313 314 315 315 315 315 315 315
311 309 308 308 308 307 306 306 306 307 307 307 307 308 309 310 309 307 305 305 306 308 310 309 306 305 306 308 309 308 308 311 312 310 308 307 309 310 310 312 311 309 308 308 308 308 307 306 305 305 305 305 305 307 311 314 314 315 315 316 316 316 316
310 308 308 308 308 307 306 306 306 306 306 306 306 307 307 307 306 305 305 305 305 306 305 305 305 305 305 305 305 305 306 306 306 306 305 304 305 306 305 306 306 305 305 305 305 304 304 304 303 303 303 303 303 305 310 313 314 314 314 315 315 315 316
310 309 308 308 308 307 306 305 305 305 306 306 306 306 306 306 306 306 306 306 306 306 306 306 306 306 306 306 306 306 306 305 305 305 305 305 305 305 305 305 304 304 304 303 303 303 303 302 302 302 302 302 303 303 306 309 312 313 313 313 314 315 315
313 311 309 308 308 307 306 305 306 306 305 306 306 305 306 306 306 306 306 306 306 306 306 306 306 306 306 306 306 306 305 305 305 305 305 304 304 304 304 303 303 303 303 303 303 303 303 302 302 302 302 302 302 302 303 305 307 310 310 310 310 311 312
314 312 311 311 309 307 307 306 306 306 306 306 306 306 306 306 306 306 306 306 306 306 306 306 306 306 305 305 305 305 305 304 304 304 304 304 304 303 303 303 303 303 303 303 303 303 303 303 303 304 304 304 304 303 303 303 304 305 306 306 306 306 306
314 309 311 316 313 307 307 307 306 306 306 306 306 306 306 306 306 306 306 306 306 306 306 306 306 306 305 305 305 305 305 306 305 306 306 305 305 305 305 305 305 305 305 306 305 305 304 304 305 306 306 306 306 305 305 305 305 305 305 305 304 304 304
316 310 309 315 315 309 307 307 306 307 306 306 306 306 306 306 306 306 306 306 306 305 305 305 305 306 306 306 307 307 307 307 307 307 307 307 307 307 307 307 307 307 308 308 308 307 307 307 307 307 307 307 306 306 306 306 306 305 305 305 305 304 304
317 313 310 315 317 312 308 308 307 307 307 306 307 306 307 307 306 307 307 306 306 306 306 306 306 307 307 307 307 308 308 308 308 308 308 307 307 307 307 308 308 307 308 309 309 310 309 309 308 308 308 307 307 306 306 305 305 304 304 304 304 304 304
317 315 312 316 318 315 311 310 310 310 310 308 307 307 307 307 307 307 307 307 308 307 307 307 307 307 307 308 308 308 308 308 308 308 308 308 308 308 307 307 307 307 308 308 309 310 310 310 310 309 308 308 308 307 306 305 305 304 304 304 304 303 303
317 315 313 316 318 317 315 313 313 314 315 313 311 309 308 308 308 307 308 308 308 308 308 308 308 308 308 308 308 308 308 308 308 308 308 308 308 308 308 307 307 307 307 307 308 309 310 310 310 310 309 309 308 308 308 307 306 305 305 305 304 304 303
317 315 315 316 318 318 316 315 315 316 317 317 316 315 313 312 311 310 310 309 309 309 310 310 310 310 310 310 309 310 309 309 309 309 309 309 308 308 308 308 308 307 306 307 307 307 308 308 309 309 309 309 308 308 308 308 307 307 306 306 305 304 304
317 316 316 316 318 319 317 316 317 317 317 317 318 317 317 316 315 315 315 314 314 314 314 314 314 313 314 314 314 314 314 313 312 311 310 310 309 309 309 309 309 308 308 308 307 308 308 307 308 308 308 308 308 308 308 308 308 307 306 306 305 304 303
317 316 316 316 318 319 319 317 317 318 318 318 318 318 318 318 317 317 317 317 317 317 317 316 316 317 317 317 317 317 317 316 316 316 315 315 314 313 312 311 311 310 310 309 308 309 309 309 308 308 308 309 309 309 309 309 308 307 306 305 305 303 302
315 315 315 316 318 319 319 318 318 318 318 318 318 318 318 318 317 317 317 318 318 318 318 317 317 317 317 317 318 318 318 318 318 318 318 318 317 317 317 316 315 315 314 312 311 311 311 311 311 310 309 309 309 309 310 310 309 308 306 305 304 303 301
315 317 316 316 318 319 319 318 318 318 318 319 319 318 318 317 317 317 316 316 318 318 318 318 318 317 317 317 317 317 318 318 319 319 318 318 319 318 318 318 317 317 317 315 314 314 313 313 313 312 310 309 309 309 309 309 309 309 307 305 303 302 301
318 318 317 317 319 318 317 317 317 317 318 318 318 318 317 317 317 317 316 317 318 318 318 319 318 318 318 318 317 317 317 318 319 319 319 318 319 318 318 318 318 317 317 317 315 314 313 312 313 312 310 309 309 309 309 308 308 308 307 305 303 301 300
319 318 316 317 318 318 318 317 316 317 317 317 317 317 317 317 317 317 317 318 318 317 317 319 319 319 319 318 318 317 317 316 316 317 318 318 319 318 317 317 317 317 317 316 315 314 313 312 312 312 311 309 308 308 308 307 306 305 304 303 302 301 300
319 318 318 318 318 317 317 317 317 316 316 317 317 317 318 318 317 317 318 318 317 316 317 319 319 319 319 318 318 317 317 315 315 316 318 319 319 318 317 317 317 317 316 315 315 314 314 312 312 312 311 309 308 308 307 306 305 304 302 301 301 301 301
321 321 320 319 317 317 317 317 316 315 316 317 317 317 318 318 317 317 318 317 316 317 318 319 318 318 318 318 317 317 316 316 316 317 318 319 319 318 318 318 318 317 316 315 314 314 313 312 311 312 311 309 308 307 307 305 304 303 302 302 302 302 301
320 320 320 319 318 317 318 317 317 316 315 317 318 317 317 318 318 317 316 316 316 318 318 318 318 318 318 318 318 318 317 317 317 317 317 318 319 319 319 318 318 317 315 315 314 313 312 311 311 311 311 309 308 307 307 306 304 303 302 302 302 301 301
319 320 320 319 318 318 318 319 319 318 317 317 318 317 317 318 317 317 316 316 317 317 317 317 317 317 317 318 318 318 319 319 319 319 319 320 320 319 319 318 318 317 315 314 313 312 311 311 311 310 309 308 308 307 307 306 305 303 302 302 301 301 301
317 318 318 316 315 316 317 317 318 318 317 317 317 318 318 318 317 317 317 317 316 315 315 314 313 313 312 312 310 310 311 313 315 317 318 319 319 319 318 318 318 316 314 313 312 311 311 310 310 309 308 308 308 307 305 304 304 303 302 301 301 300 300
313 314 314 313 313 314 315 315 316 316 316 317 317 317 318 318 317 316 316 315 314 313 312 311 311 309 308 307 306 306 307 307 308 310 312 315 317 318 318 318 317 315 313 312 311 311 310 310 309 309 308 307 306 305 303 303 303 303 302 301 301 300 300
309 311 311 312 312 312 312 312 313 313 313 313 314 314 314 315 314 313 312 310 309 309 310 309 309 308 307 307 307 307 307 307 308 309 311 313 316 316 317 316 315 313 312 311 311 310 310 310 310 308 306 305 304 303 303 303 303 302 302 301 301 300 300
309 309 309 310 310 310 309 309 309 310 310 309 309 309 310 310 310 309 309 308 307 308 309 309 309 308 308 308 307 306 306 306 307 308 309 311 312 314 314 314 313 312 312 311 311 310 310 309 308 306 305 305 304 304 303 303 302 302 301 301 301 300 300
309 308 308 307 307 306 305 306 307 307 308 308 308 307 306 306 306 306 306 306 306 307 308 308 308 308 308 308 307 306 306 306 307 307 307 308 310 312 313 313 312 311 311 311 310 310 309 307 306 305 305 305 304 303 303 302 302 301 301 300 300 299 298
309 309 308 307 306 305 304 303 303 304 304 305 305 304 304 303 304 304 304 304 304 305 306 307 308 308 308 309 309 309 308 308 308 309 309 309 310 311 311 311 311 310 310 310 309 308 307 306 306 305 305 304 303 302 302 301 301 300 300 299 298 297 296
309 309 309 309 309 308 306 304 303 303 303 302 302 302 302 302 303 303 303 303 303 304 304 305 307 309 309 310 310 310 310 310 310 311 310 310 310 310 310 310 309 309 308 307 307 306 305 305 305 305 304 303 302 301 301 300 299 299 298 297 296 295 294
309 309 309 309 309 308 307 306 304 303 303 303 303 303 304 303 303 303 302 302 303 305 306 307 308 309 310 311 311 311 311 311 311 311 310 309 309 309 308 308 308 307 306 306 305 305 305 305 304 303 303 302 301 300 299 299 298 296 295 294 294 294 294
308 309 309 309 308 308 307 306 305 305 305 305 305 305 306 306 306 305 303 302 302 304 307 309 311 311 311 311 312 311 311 311 311 310 309 308 308 307 307 307 307 307 306 305 304 304 304 304 303 301 300 300 299 298 298 296 295 294 294 294 294 294 294
307 307 307 307 306 306 305 305 305 305 307 307 308 308 308 307 306 306 304 303 302 303 305 309 311 311 311 311 311 311 310 310 310 309 308 307 307 306 306 306 306 305 305 304 303 303 303 302 300 299 298 298 297 296 295 295 295 294 294 294 294 294 293
306 306 306 306 306 306 305 305 304 305 306 307 307 307 307 306 305 304 304 303 304 304 306 309 311 311 311 311 311 310 309 309 309 309 308 307 306 305 305 305 304 303 303 302 301 301 299 298 297 296 296 295 295 294 294 294 294 294 294 293 293 293 293
Wind_Speed
6 5 7 8 9 10 10 10 11 11 10 8 6 5 5 4 3 3 4 5 5 4 3 3 1 1 1 2 3 3 5 7 9 9 8 7 8 8 6 5 6 6 7 5 4 4 3 3 2 2 1 2 3 3 2 2 3 4 4 5 6 7 9
9 7 8 9 10 10 10 11 11 10 9 8 7 7 6 4 2 2 3 5 5 5 4 3 1 1 2 2 2 1 1 2 4 6 6 5 4 5 4 5 6 6 7 7 6 5 4 3 3 2 2 3 2 1 2 3 4 5 5 6 6 6 6
13 10 9 10 10 9 10 11 11 11 11 10 9 8 7 5 4 3 4 3 5 5 4 3 1 0 2 1 2 3 4 3 2 2 2 2 3 2 1 2 3 3 4 4 3 2 2 1 1 1 1 1 1 3 4 4 5 5 5 4 4 4 4
13 10 11 12 10 8 9 11 12 12 12 10 9 8 8 7 6 5 6 5 4 4 4 3 2 3 3 1 3 2 3 5 5 6 6 5 5 4 4 3 2 1 1 1 0 0 0 1 1 1 3 3 4 3 2 2 2 3 3 3 3 2 1
12 10 11 10 8 7 8 10 11 12 11 10 9 8 8 7 5 4 3 3 3 3 3 3 3 2 1 1 2 1 3 5 5 5 4 3 3 3 3 3 3 2 1 1 0 0 1 2 2 3 4 3 2 2 3 3 3 4 4 4 5 5 3
11 9 10 9 7 7 8 9 10 10 9 8 8 7 6 5 4 3 3 3 4 4 2 1 2 3 4 3 2 3 5 6 5 5 4 3 3 3 2 2 2 1 1 1 1 2 2 3 3 4 4 2 1 4 7 6 5 3 3 4 5 5 4
12 10 9 8 7 6 6 7 9 9 8 7 7 8 8 8 7 7 7 8 9 9 9 8 9 9 8 7 7 7 7 7 6 5 5 4 4 3 2 2 1 0 1 1 2 2 2 2 2 3 3 2 1 4 7 7 6 4 2 2 2 3 3
13 11 10 8 6 6 6 7 8 8 7 6 7 9 10 10 9 8 8 8 9 10 10 9 9 9 8 8 8 7 7 6 5 5 4 3 3 2 2 1 1 1 1 2 2 2 2 2 3 3 3 3 3 3 4 5 5 5 3 1 2 2 4
14 12 11 10 7 7 8 8 8 8 8 8 8 8 9 9 9 8 8 8 8 9 9 8 7 7 7 7 6 6 5 5 5 4 4 3 3 2 2 2 2 2 2 2 2 3 3 3 4 4 4 4 4 4 4 3 3 3 2 3 4 5 6
16 14 11 9 9 10 11 10 10 9 10 10 9 9 8 8 8 8 8 8 8 9 9 9 8 8 8 7 8 8 7 7 7 7 6 6 5 4 4 3 2 3 3 4 4 4 4 5 6 7 7 7 6 5 4 4 3 2 2 4 4 5 6
16 14 12 9 10 13 14 13 12 11 11 11 11 11 10 9 9 9 9 10 9 9 10 11 10 10 10 10 10 10 10 10 9 9 8 8 7 6 6 5 4 4 5 6 7 7 7 7 8 8 9 9 9 9 9 8 6 5 7 8 8 9 9
16 13 15 13 12 14 17 16 15 14 13 12 12 12 11 11 11 11 11 11 11 11 11 12 13 12 12 11 11 10 10 9 8 7 7 7 6 6 5 5 5 5 5 6 7 7 7 8 8 9 9 10 11 11 11 11 10 10 11 11 12 13 13
18 13 15 17 15 15 17 17 17 15 14 14 13 13 13 12 11 11 11 12 12 12 12 12 12 12 12 11 10 9 8 7 6 5 5 4 4 3 3 3 3 3 3 4 5 5 6 7 8 8 9 9 10 11 12 12 12 12 12 12 13 14 14
22 16 17 20 18 16 17 17 18 16 15 14 14 14 13 12 12 11 10 11 11 11 11 11 10 10 10 9 8 7 6 5 4 3 2 1 1 1 0 1 1 1 1 1 2 3 4 5 5 6 7 8 8 9 11 12 13 14 13 13 14 14 14
25 21 21 22 21 20 18 17 18 17 16 16 15 14 14 13 12 12 11 10 10 10 10 10 9 9 8 7 6 6 5 4 4 3 2 2 2 2 2 3 3 3 4 4 3 3 3 3 4 4 5 6 7 8 9 11 13 14 15 14 14 14 14
28 25 24 24 23 23 21 18 19 19 17 16 16 14 14 13 12 12 12 11 10 10 9 9 9 8 8 7 7 6 6 5 5 5 4 4 4 5 5 5 5 5 6 6 6 6 5 5 5 5 6 6 7 8 10 11 12 14 15 15 15 16 16
29 27 26 25 25 26 26 24 21 20 20 19 19 17 16 14 13 12 11 11 10 10 9 9 8 8 8 7 7 6 6 6 6 6 6 5 6 6 6 6 6 6 6 7 8 8 8 8 8 8 8 9 9 10 11 12 13 14 15 16 17 17 18
29 28 28 27 26 26 29 29 27 24 23 23 23 22 20 20 19 16 13 11 10 10 10 9 8 7 7 6 6 5 5 5 5 5 6 6 6 6 7 7 8 8 8 8 8 9 9 10 10 11 12 12 12 13 14 15 15 15 16 16 17 17 18
29 28 28 28 27 27 30 32 31 28 27 27 27 24 22 23 22 18 14 14 14 12 11 10 8 7 7 6 6 6 6 6 6 6 6 7 7 7 7 8 9 9 9 9 9 10 10 10 11 12 13 14 14 14 16 17 17 17 17 17 17 17 18
29 27 27 26 25 26 31 33 32 30 29 30 28 25 23 22 21 17 14 16 18 17 15 13 11 11 10 9 9 10 11 11 10 10 10 10 10 10 10 10 10 10 10 10 11 11 11 11 12 12 13 13 13 14 16 17 18 19 19 18 18 18 18
28 25 25 25 22 24 30 32 31 30 30 29 28 25 24 23 22 21 20 21 23 22 19 17 15 15 14 13 13 14 14 14 14 14 13 13 13 14 13 13 13 13 13 12 13 13 13 12 12 13 13 13 13 14 15 17 18 19 19 18 18 18 19
25 24 25 26 24 24 28 30 30 30 29 29 27 25 25 26 26 25 25 24 24 25 24 21 19 17 17 16 16 17 17 17 17 17 15 16 17 17 16 16 16 16 15 15 15 15 15 14 13 14 15 15 14 15 16 17 18 19 18 18 18 18 19
22 22 23 25 24 24 25 27 29 31 31 30 31 29 29 30 29 27 24 22 22 23 23 22 19 18 18 19 20 22 23 22 21 19 17 17 18 18 17 18 19 19 18 18 17 17 16 16 15 16 16 16 16 17 18 19 19 19 18 18 18 19 20
20 18 18 20 21 21 22 24 25 28 31 32 32 31 29 29 27 25 23 22 21 21 20 21 21 21 22 23 24 25 25 24 22 21 20 19 18 18 18 19 20 20 20 20 20 19 18 16 16 17 17 17 17 18 19 20 20 19 19 20 21 21 22
19 18 17 18 18 19 22 23 23 24 28 31 29 27 27 27 26 23 22 22 21 20 21 23 23 22 22 21 21 22 22 22 22 22 23 22 21 20 18 19 21 22 22 22 22 20 19 17 17 18 17 17 17 19 20 21 21 21 21 22 22 23 24
14 15 15 16 16 18 19 19 20 21 23 25 24 23 23 22 20 17 17 17 16 17 18 19 19 18 18 18 18 19 20 21 22 22 22 22 21 20 19 18 20 23 24 25 23 21 19 18 18 18 17 17 17 19 21 23 23 23 23 23 23 24 25
9 11 13 14 14 15 14 13 14 15 16 17 17 16 15 14 12 11 11 12 12 12 12 13 13 15 16 16 17 17 18 20 21 21 22 21 19 19 18 17 19 23 25 25 23 20 19 18 18 18 17 17 19 20 22 23 24 24 24 23 24 25 26
9 11 13 14 13 13 13 12 13 13 14 14 13 12 11 11 10 10 10 11 12 12 12 13 14 14 15 15 14 14 14 15 16 17 18 18 17 16 15 16 18 21 23 23 21 20 20 20 19 19 19 19 20 21 23 24 25 25 24 24 24 25 27
10 11 12 13 13 14 13 13 14 14 14 13 13 12 11 10 10 10 11 12 12 13 14 14 15 14 14 12 12 12 11 12 12 12 12 14 14 13 12 13 16 19 21 22 21 21 21 21 20 20 19 19 21 23 25 26 26 26 25 25 26 27 28
12 12 13 13 13 13 13 13 14 13 12 12 11 10 10 10 9 10 11 12 12 13 14 14 14 14 13 12 12 12 11 11 11 10 10 10 9 9 9 11 14 17 19 21 21 21 21 21 20 19 19 22 24 26 26 26 26 26 26 27 28 29 30
13 13 13 12 11 11 11 11 12 12 12 11 11 10 10 10 10 10 11 11 12 13 13 14 15 14 14 14 13 12 10 10 10 10 9 8 7 8 9 11 13 16 18 20 21 21 21 19 19 20 23 25 26 25 26 26 25 26 27 28 29 31 32
13 13 12 11 9 8 9 9 9 10 10 10 9 9 8 8 9 10 10 10 10 11 12 13 14 14 14 14 13 11 9 8 8 8 8 7 7 8 10 12 14 16 18 19 20 20 20 19 21 23 25 25 24 24 25 25 25 27 28 30 32 33 33
16 14 13 12 10 9 9 9 8 7 8 8 7 6 6 6 7 9 10 11 11 11 12 13 14 14 14 13 13 11 10 8 7 7 7 8 8 10 11 13 14 16 17 18 19 19 20 21 23 24 25 24 24 24 24 25 27 29 31 33 34 34 34
17 17 16 15 13 11 11 10 8 7 8 9 8 8 8 9 9 9 10 12 13 13 14 14 15 15 15 14 13 11 9 8 7 8 8 9 10 12 13 14 15 16 17 17 18 19 20 22 23 23 23 23 24 24 26 28 30 31 32 33 33 34 35
15 18 18 17 16 14 12 11 10 9 10 10 10 11 11 12 12 12 13 13 13 14 15 15 16 16 15 14 12 11 10 9 9 10 10 11 12 13 13 14 15 15 16 17 18 19 20 21 22 22 23 24 25 26 28 30 31 31 32 33 34 35 36
14 16 17 16 15 14 12 11 10 10 11 12 12 13 13 13 14 15 16 16 15 14 14 14 15 15 15 14 12 11 11 11 11 12 12 12 12 12 12 13 14 14 15 16 17 18 19 20 21 23 24 25 26 27 28 29 30 31 33 34 35 36 35
18 18 17 16 15 14 12 11 12 11 11 12 12 13 13 14 15 16 17 17 16 14 13 13 14 15 14 13 11 11 11 13 13 14 14 14 12 11 11 12 13 14 15 16 17 18 19 20 21 22 23 24 24 25 27 28 30 32 33 33 34 34 34
Wind_Direction
259 283 278 265 253 248 244 240 236 237 241 243 249 259 254 237 226 208 205 206 209 214 227 232 216 230 283 284 275 254 246 255 258 257 253 248 259 265 258 251 244 232 231 234 236 239 247 249 247 251 218 190 191 188 193 236 252 256 251 253 262 265 263
233 251 263 250 237 235 237 238 237 237 242 247 257 269 267 255 249 230 216 214 212 214 217 207 157 101 61 49 50 58 51 279 265 256 256 261 266 268 267 254 243 237 239 247 258 265 264 251 222 204 192 165 147 84 359 303 281 273 266 258 253 255 258
224 240 248 230 221 226 233 238 240 241 244 250 256 255 249 249 256 270 279 248 214 210 213 208 198 307 342 347 143 112 88 89 99 122 112 93 100 111 168 222 231 236 246 260 272 276 270 251 205 199 201 177 358 354 339 312 305 306 305 299 276 259 258
230 245 236 217 214 221 227 234 239 241 244 249 249 238 229 236 249 267 284 278 238 216 213 227 267 295 314 258 173 159 110 109 107 102 98 95 97 97 102 114 125 139 181 244 41 121 228 323 328 301 303 310 326 352 1 311 352 20 13 15 15 10 328
237 245 231 215 214 222 224 227 230 231 234 236 234 227 221 224 234 250 272 275 247 229 241 273 291 302 328 129 164 167 148 141 130 121 119 114 111 107 109 118 131 149 184 208 194 219 284 309 308 303 309 320 345 79 126 152 135 98 73 61 53 44 25
232 228 222 215 216 226 225 220 219 219 217 214 212 207 196 183 168 142 117 108 118 131 135 117 99 102 103 106 111 120 138 149 148 141 142 144 143 144 146 152 171 209 261 288 310 318 320 324 319 315 325 338 79 141 154 163 159 137 98 70 54 41 18
223 210 206 209 214 223 224 215 213 214 210 199 184 173 164 153 141 129 119 110 110 112 112 109 105 103 104 105 108 112 120 130 132 130 131 138 143 142 141 151 182 292 345 353 340 342 350 350 352 351 350 4 90 155 173 180 177 176 158 97 54 24 355
215 202 196 202 209 214 212 203 201 203 201 190 173 162 157 154 149 143 136 126 120 117 115 112 108 104 102 101 102 106 112 117 119 123 126 126 127 121 119 117 95 53 14 17 17 16 18 17 27 37 31 44 95 134 173 189 191 195 204 232 268 291 308
209 196 190 198 203 203 199 190 188 192 191 186 178 172 166 163 162 159 154 145 137 133 128 124 118 109 101 95 95 95 100 106 102 103 107 103 104 98 97 98 76 68 59 54 46 31 30 28 28 32 32 44 77 107 129 147 173 191 222 262 270 281 292
205 190 185 202 208 203 197 188 187 192 191 189 184 179 174 166 163 161 157 153 149 142 135 131 124 115 108 100 98 97 94 94 91 88 86 82 82 78 76 78 72 77 75 63 53 43 41 35 31 31 31 38 47 56 75 81 86 96 1 333 318 315 312
206 185 181 210 224 209 201 193 191 194 192 193 190 184 181 170 158 153 152 150 147 140 134 131 126 121 118 112 109 106 101 98 94 90 87 80 75 70 65 67 72 77 73 61 49 41 36 30 25 23 22 27 32 31 33 36 41 35 11 1 352 346 344
209 188 183 206 228 218 208 199 194 198 195 194 195 192 189 180 165 154 149 147 146 144 140 136 133 129 127 123 120 116 110 107 103 96 93 88 81 72 65 66 65 61 62 59 47 33 24 17 13 12 11 14 17 17 16 16 18 12 3 359 353 346 344
206 201 200 210 224 222 215 207 198 199 199 197 200 199 197 192 180 165 153 148 146 145 144 141 139 136 134 134 132 128 124 119 114 106 99 93 87 79 65 57 56 51 50 56 50 34 20 12 8 4 1 2 5 4 1 360 359 357 353 348 344 338 336
207 213 216 215 222 222 220 216 206 201 201 201 201 199 199 197 193 186 172 161 154 151 149 147 147 147 145 148 149 147 148 148 144 135 127 116 96 90 28 341 338 334 329 351 28 24 14 8 3 359 354 352 352 351 350 347 344 343 342 339 335 331 329
211 215 219 218 223 223 221 224 219 211 206 205 207 203 199 198 197 196 191 183 175 169 164 160 162 165 167 171 176 176 178 184 194 200 202 229 255 261 268 275 276 275 275 274 280 299 326 342 342 341 339 337 338 337 337 336 334 332 332 332 330 327 326
213 216 222 223 225 224 222 225 225 224 219 215 216 213 207 204 202 199 197 196 192 185 180 178 178 180 184 189 194 199 202 204 211 219 225 236 249 256 264 272 275 272 271 276 282 289 299 311 317 319 319 320 321 323 324 326 326 325 325 326 326 324 324
217 219 225 227 226 226 226 225 224 227 229 226 226 226 222 217 213 208 204 201 200 197 193 192 194 194 196 200 205 210 213 215 218 225 233 241 249 256 264 272 277 275 273 279 286 293 301 305 309 310 308 308 309 312 316 319 320 320 319 320 321 321 322
224 223 227 229 228 228 229 229 227 228 231 231 231 232 231 229 227 224 220 217 216 215 212 211 216 215 210 212 217 223 229 232 236 241 245 251 257 263 269 276 283 286 287 289 292 299 305 308 309 307 304 304 306 310 315 317 318 317 315 315 315 317 318
227 228 230 231 232 231 230 232 233 233 234 234 232 231 233 236 237 236 237 239 238 236 234 234 239 243 246 251 253 257 261 261 262 265 265 267 269 270 274 276 279 285 290 291 290 294 300 306 307 303 300 300 302 306 312 315 316 315 313 312 312 312 313
233 233 232 234 238 236 231 233 239 242 244 243 238 233 234 237 238 236 244 250 246 242 243 244 250 257 261 266 272 277 277 272 268 271 274 275 275 276 277 276 275 280 285 285 282 283 288 296 302 301 294 293 297 301 305 309 310 311 310 310 309 309 309
239 240 240 243 247 242 235 234 239 245 249 252 248 241 238 240 237 236 244 250 247 246 248 248 252 258 257 258 269 279 283 279 272 268 269 273 275 276 275 274 275 280 284 283 279 278 279 285 296 299 294 291 294 297 299 300 302 304 305 304 304 304 305
246 248 252 253 250 247 243 238 239 245 248 247 244 239 239 241 240 241 246 250 253 256 256 253 256 260 260 261 269 277 283 284 277 269 267 269 270 271 272 273 275 277 279 279 278 278 278 281 290 296 295 294 295 295 294 295 299 302 303 302 300 300 300
252 255 258 257 249 244 242 238 238 241 240 238 235 235 240 242 242 245 249 254 260 262 260 260 264 267 268 270 273 276 279 280 277 273 273 271 269 269 272 275 276 276 274 274 276 276 275 277 284 290 292 293 295 294 293 296 301 305 305 304 301 300 301
256 256 251 247 244 241 239 238 237 235 231 230 230 231 239 243 243 246 253 260 262 262 262 265 268 269 270 271 274 277 278 277 275 275 276 276 276 275 276 277 277 274 270 271 273 273 272 273 277 283 288 290 293 295 296 298 302 306 306 305 305 307 311
251 246 234 230 234 236 236 237 237 232 229 231 234 236 240 244 246 249 254 258 259 260 262 263 265 268 270 272 274 277 277 276 275 275 275 277 279 278 276 276 276 272 268 268 270 270 269 268 272 280 287 290 293 297 298 300 303 306 306 307 309 313 316
241 235 226 222 223 225 226 227 226 224 226 231 236 237 238 243 246 245 244 244 247 252 256 259 263 267 269 272 274 275 275 274 273 273 275 277 278 276 272 272 273 271 265 262 262 262 262 265 271 279 284 286 291 296 298 301 304 306 307 308 311 314 315
205 202 201 201 203 206 206 204 203 207 212 218 222 224 225 229 229 225 226 229 236 245 253 259 265 270 272 275 275 275 275 274 273 273 273 274 276 275 271 268 270 269 262 257 256 257 258 262 269 275 280 284 290 295 297 300 303 304 305 306 308 310 311
193 191 193 197 201 201 200 199 197 198 201 204 209 212 214 218 220 220 224 230 239 248 257 266 274 279 281 282 281 282 282 282 281 280 276 275 275 274 270 269 270 264 255 251 253 253 254 260 269 278 283 286 289 292 295 298 301 301 302 302 303 304 305
213 210 207 205 205 203 203 203 202 203 206 208 212 216 219 225 230 234 238 243 251 260 267 275 280 281 282 283 285 288 289 291 291 287 280 277 274 272 273 274 269 258 249 248 250 251 257 266 277 282 284 285 289 291 293 295 296 296 298 298 298 298 300
219 221 219 216 214 215 217 216 213 214 215 217 221 227 233 241 245 249 254 258 264 270 276 282 283 281 282 286 291 294 291 289 288 286 284 282 278 278 279 275 265 254 249 250 251 256 265 274 279 281 282 286 288 288 289 290 292 293 294 295 295 296 298
220 222 218 213 216 220 222 223 223 224 224 226 231 234 239 245 249 252 255 258 264 271 276 282 282 283 286 289 295 299 296 288 284 285 289 291 290 290 283 272 262 256 255 256 259 265 272 274 277 281 283 283 282 281 284 287 289 290 291 291 293 294 295
217 219 215 212 219 221 215 212 215 219 220 221 224 230 237 246 252 256 258 260 264 268 271 276 279 282 287 291 297 302 303 299 293 289 290 290 287 284 277 272 267 262 262 263 266 269 273 275 279 282 282 280 281 282 285 286 287 288 289 290 291 293 295
217 217 219 223 230 228 221 217 213 212 216 218 226 238 247 258 268 270 269 268 269 271 274 279 283 285 289 292 297 303 307 307 301 291 284 280 276 273 271 270 270 268 268 269 270 272 275 279 281 281 281 283 285 286 288 289 290 292 293 294 296 298 301
218 217 220 225 226 222 225 231 229 223 225 235 249 259 264 274 281 286 286 280 273 272 274 279 283 287 290 291 294 298 300 298 291 281 276 275 274 272 270 269 270 272 275 276 277 280 283 285 285 283 283 284 286 288 291 293 295 296 297 299 301 303 304
214 211 214 215 213 212 218 227 228 229 234 244 255 263 267 275 284 294 301 296 284 276 275 278 281 282 283 285 286 288 289 287 283 279 277 276 273 269 268 268 270 273 278 281 282 285 287 286 285 284 284 285 288 291 293 295 296 298 300 302 303 303 303
223 215 213 214 215 218 226 234 232 231 234 243 253 261 267 276 285 295 302 304 298 288 279 276 276 274 275 277 278 281 284 284 283 282 280 276 272 267 266 268 268 270 276 279 281 281 281 280 281 283 285 288 291 293 294 296 298 300 300 301 301 301 302
233 228 224 225 228 231 241 254 254 244 237 240 251 260 268 278 287 294 301 305 304 297 287 278 271 266 266 267 267 273 280 281 280 279 276 274 273 271 271 273 272 272 275 277 278 277 278 281 284 287 289 291 293 295 297 298 299 299 300 301 302 303 305